Location: Владивосток
(43.1151°N, 131.8856°E)
Time: 05:53:44
(UTC+10:00)

CZ-2D DEB - Visible Passes

Search period start: 08 October 2024 00:00
Search period end: 18 October 2024 00:00
Orbit: 751 x 1000 km, 98.5° (Epoch: 07 October)

Date Brightness Start Highest point End Pass type
(mag) Time Alt. Az. Time Alt. Az. Time Alt. Az.
08 Oct ? 22:14:20 16° NNW 22:14:20 16° NNW 22:15:19 10° NNW visible
09 Oct ? 22:09:44 16° NNW 22:09:44 16° NNW 22:10:41 10° NNW visible
10 Oct ? 22:05:07 15° N 22:05:07 15° N 22:06:01 10° N visible
11 Oct ? 22:00:31 15° N 22:00:31 15° N 22:01:22 10° N visible
12 Oct ? 21:55:53 15° N 21:55:53 15° N 21:56:41 10° N visible
13 Oct ? 21:51:15 14° N 21:51:15 14° N 21:52:00 10° N visible
14 Oct ? 21:46:37 14° N 21:46:37 14° N 21:47:19 10° N visible
15 Oct ? 21:41:58 13° N 21:41:58 13° N 21:42:37 10° N visible
16 Oct ? 21:37:19 13° N 21:37:19 13° N 21:37:54 10° N visible
17 Oct ? 21:32:40 13° N 21:32:40 13° N 21:33:10 10° N visible
